User: anonymous   Login
Location: Unspecified
(0.0000°N, 0.0000°E)
Time: 05:27:55
(UTC+00:00)
Language:

OBJECT F - Orbit

View from above orbital plane
View from above orbital plane
View from above satellite
View from above satellite

Ground track
Ground track

The orbit data is extracted from the following two-line orbital elements,

1 43116U 18004F   19083.82843040  .00000899  00000-0  41358-4 0  9999
2 43116  97.5022 151.8499 0009761 177.2585 182.8707 15.22912473 66435
Epoch (UTC): 24 March 2019 19:52:56
Eccentricity: 0.0009761
inclination: 97.5022°
perigee height: 490 km
apogee height: 504 km
right ascension of ascending node: 151.8499°
argument of perigee: 177.2585°
revolutions per day: 15.22912473
mean anomaly at epoch: 182.8707°
orbit number at epoch: 6643

The dashed part of the orbit path shows where the satellite is in the earth's shadow,  

DLR